Location: G�ppingen
(48.7089°N, 9.6563°E)
Time: 08:17:16
(UTC+02:00)

M-CUBED/EXP-1 PRIME - Pass Details

Date: 28 March 2019
Orbit: 430 x 671 km, 101.7° (Epoch: 20 April)

Event Time Altitude Azimuth Distance (km) Brightness Sun altitude
Rises 05:29:08 0° 105° (ESE) 2,656 ? -7.2°
Reaches altitude 10° 05:32:12 10° 76° (ENE) 1,830 ? -6.7°
Maximum altitude 05:33:57 13° 49° (NE) 1,693 ? -6.5°
Drops below altitude 10° 05:35:46 10° 23° (NNE) 1,900 ? -6.2°
Sets 05:39:05 0° 356° (N) 2,866 ? -5.6°
